Flag for Germany Weather past 2 weeks in Stuhr, Lower Saxony, Germany

Now
54 °F

Sunny.


Feels Like: 51 °F
Forecast: 42 / 58 °F
Wind: 9 mph from Northwest

Location: Bremen Airport

Current Time: Apr 21, 2015 at 10:52:08 AM

Latest Report: Apr 21, 2015 at 10:20 AM


Visibility: 10 mi

Pressure: 30.42 "Hg

Humidity: 67%

Dew point: 43 °F

Location of StuhrLocation

Historic Weather in Stuhr — Graph

°F

Stuhr temperature yesterday

Maximum temperature yesterday: 63 °F (at 1:20 PM)
Minimum temperature yesterday: 36 °F (at 5:20 AM)
Average temperature yesterday: 52 °F

Past Weeks' High & Low Weather Summary

 TemperatureHumidityPressure
High72 °F (Apr 15, 2:50 PM)100% (Apr 7, 3:50 AM)30.57 "Hg (Apr 7, 3:50 AM)
Low30 °F (Apr 7, 4:20 AM)31% (Apr 19, 5:20 PM)29.89 "Hg (Apr 15, 3:20 PM)
Average49 °F73%30.25 "Hg
* Reported Apr 6 9:20 AM — Apr 21 9:20 AM, Stuhr, Weather by CustomWeather, © 2015

Note: Actual official high and low records may vary slightly from our data, if they occured in-between our weather recording intervals... More about our weather records

Advertising

Stuhr weather history for previous 24 hours

 ConditionsComfort  
Time TempWeatherWind HumidityBarometerVisibility
9:20 AM
Tue, Apr 21
48 °FSunny.8 mph82%30.42 "Hg10 mi
8:50 AM46 °FSunny.10 mph87%30.42 "Hg10 mi
8:20 AM46 °FSunny.10 mph87%30.39 "Hg10 mi
7:50 AM45 °FSunny.6 mph93%30.39 "Hg10 mi
7:20 AM37 °FSunny.5 mph100%30.39 "Hg10 mi
6:50 AM37 °FFog.6 mph100%30.39 "HgN/A
6:20 AM37 °FFog.6 mph100%30.39 "HgN/A
5:20 AM39 °FFog.3 mph100%30.39 "HgN/A
4:50 AM39 °FFog.3 mph100%30.39 "HgN/A
4:20 AM39 °FFog.3 mph100%30.39 "HgN/A
3:50 AM41 °FFog.3 mph100%30.39 "HgN/A
3:20 AM41 °FFog.3 mph100%30.39 "HgN/A
2:50 AM41 °FFog.5 mph93%30.39 "HgN/A
2:20 AM41 °FFog.5 mph93%30.39 "HgN/A
1:50 AM41 °FFog.3 mph100%30.39 "HgN/A
1:20 AM41 °FClear.5 mph100%30.39 "Hg10 mi
12:50 AM43 °FClear.5 mph93%30.39 "Hg10 mi
12:20 AM41 °FClear.5 mph93%30.39 "Hg10 mi
11:50 PM
Mon, Apr 20
41 °FClear.6 mph93%30.36 "Hg10 mi
11:20 PM43 °FClear.6 mph87%30.36 "Hg10 mi
10:50 PM46 °FClear.8 mph87%30.39 "Hg10 mi
10:20 PM46 °FClear.7 mph87%30.36 "Hg10 mi
9:50 PM50 °FClear.9 mph76%30.36 "Hg10 mi
9:20 PM48 °FSunny.7 mph71%30.36 "Hg10 mi
8:50 PM55 °FPassing clouds.8 mph59%30.36 "HgN/A
8:20 PM57 °FSunny.10 mph55%30.36 "Hg10 mi
7:50 PM57 °FSunny.12 mph59%30.36 "Hg10 mi
7:20 PM59 °FSunny.12 mph59%30.33 "Hg10 mi
6:50 PM61 °FSunny.13 mph59%30.33 "Hg10 mi
6:20 PM61 °FSunny.14 mph59%30.33 "Hg10 mi
5:50 PM63 °FPassing clouds.12 mph52%30.33 "HgN/A
5:20 PM63 °FPassing clouds.12 mph52%30.33 "HgN/A
4:50 PM63 °FSunny.10 mph49%30.33 "Hg10 mi
4:20 PM63 °FPassing clouds.13 mph45%30.33 "HgN/A
3:50 PM63 °FPassing clouds.14 mph42%30.33 "HgN/A
3:20 PM63 °FPassing clouds.16 mph39%30.33 "HgN/A
2:50 PM63 °FPassing clouds.17 mph39%30.33 "HgN/A
2:20 PM63 °FSunny.14 mph37%30.33 "Hg10 mi
1:50 PM63 °FPassing clouds.14 mph39%30.36 "HgN/A
1:20 PM63 °FPassing clouds.12 mph39%30.36 "HgN/A
12:50 PM61 °FPassing clouds.10 mph39%30.36 "HgN/A
12:20 PM61 °FSunny.13 mph45%30.36 "Hg10 mi
11:50 AM59 °FPassing clouds.12 mph55%30.36 "HgN/A
11:20 AM57 °FSunny.13 mph51%30.36 "Hg10 mi
10:50 AM57 °FPassing clouds.12 mph51%30.36 "HgN/A
10:20 AM55 °FSunny.8 mph67%30.36 "Hg10 mi
Weather by CustomWeather, © 2015

See weather overviewHow to use our weather pages